RYR496E LEZL-GCFV

Flight info

Callsign RYR496E
Flight time 2h 2m
Altitude 35000
Route CLANA N857 KORNO UN857 TERTO
Aircraft B738/M-SDE3FGILRWY/SB1

Departure

Time 2026-04-21 18:17
Airport Seville Airport (LEZL)

Arrival

Time 2026-04-21 20:19
Airport Fuerteventura Airport (GCFV)
Time Latitude Longitude Altitude Speed Heading
2026-04-21 17:18 37.42422 -5.89644 93 ft 0 kts 93°
2026-04-21 18:11 37.42421 -5.89640 93 ft 1 kts 110°
2026-04-21 18:11 37.42407 -5.89638 93 ft 3 kts 201°
2026-04-21 18:11 37.42366 -5.89666 93 ft 10 kts 215°
2026-04-21 18:12 37.42305 -5.89729 93 ft 12 kts 204°
2026-04-21 18:12 37.42235 -5.89681 92 ft 12 kts 134°
2026-04-21 18:12 37.42177 -5.89607 94 ft 12 kts 134°
2026-04-21 18:12 37.42120 -5.89533 96 ft 12 kts 134°
2026-04-21 18:13 37.42065 -5.89462 96 ft 11 kts 134°
2026-04-21 18:13 37.42012 -5.89393 98 ft 11 kts 134°
2026-04-21 18:13 37.41983 -5.89309 98 ft 11 kts 91°
2026-04-21 18:13 37.41983 -5.89197 99 ft 15 kts 90°
2026-04-21 18:14 37.41984 -5.88831 101 ft 24 kts 90°
2026-04-21 18:14 37.41985 -5.88628 103 ft 23 kts 89°
2026-04-21 18:14 37.41986 -5.88436 104 ft 22 kts 90°
2026-04-21 18:15 37.41986 -5.88247 105 ft 21 kts 90°
2026-04-21 18:15 37.41987 -5.88064 106 ft 21 kts 90°
2026-04-21 18:15 37.41988 -5.87886 107 ft 20 kts 90°
2026-04-21 18:15 37.41988 -5.87712 108 ft 19 kts 90°
2026-04-21 18:16 37.41986 -5.87556 109 ft 15 kts 98°
2026-04-21 18:16 37.41936 -5.87444 110 ft 15 kts 146°
2026-04-21 18:16 37.41842 -5.87450 115 ft 14 kts 219°
2026-04-21 18:16 37.41800 -5.87555 115 ft 14 kts 268°
2026-04-21 18:17 37.41798 -5.87900 110 ft 82 kts 269°
2026-04-21 18:17 37.41793 -5.88975 109 ft 159 kts 267°
2026-04-21 18:17 37.41814 -5.90399 967 ft 159 kts 266°
2026-04-21 18:17 37.41900 -5.91756 2082 ft 161 kts 279°
2026-04-21 18:18 37.42626 -5.93024 2740 ft 203 kts 312°
2026-04-21 18:18 37.43558 -5.94539 3055 ft 235 kts 295°
2026-04-21 18:18 37.43932 -5.96594 3610 ft 248 kts 272°
2026-04-21 18:18 37.44000 -5.98813 4186 ft 264 kts 271°
2026-04-21 18:19 37.43744 -6.01130 4918 ft 273 kts 242°
2026-04-21 18:19 37.42491 -6.02847 6148 ft 266 kts 213°
2026-04-21 18:19 37.40956 -6.04164 7301 ft 269 kts 213°
2026-04-21 18:19 37.39396 -6.05504 8305 ft 274 kts 213°
2026-04-21 18:20 37.37817 -6.06866 9380 ft 277 kts 213°
2026-04-21 18:20 37.36226 -6.08248 10374 ft 284 kts 213°
2026-04-21 18:20 37.34538 -6.09724 10862 ft 306 kts 215°
2026-04-21 18:20 37.32779 -6.11273 11749 ft 311 kts 216°
2026-04-21 18:21 37.31015 -6.12833 12904 ft 308 kts 216°
2026-04-21 18:21 37.29267 -6.14384 14029 ft 310 kts 216°
2026-04-21 18:21 37.27490 -6.15965 14942 ft 317 kts 216°
2026-04-21 18:21 37.25673 -6.17585 15853 ft 323 kts 216°
2026-04-21 18:22 37.23825 -6.19231 16773 ft 328 kts 216°
2026-04-21 18:22 37.21947 -6.20902 17644 ft 334 kts 215°
2026-04-21 18:22 37.20035 -6.22602 18501 ft 340 kts 215°
2026-04-21 18:22 37.18091 -6.24331 19331 ft 345 kts 215°
2026-04-21 18:23 37.16124 -6.26081 20157 ft 349 kts 215°
2026-04-21 18:23 37.14129 -6.27853 20943 ft 354 kts 215°
2026-04-21 18:23 37.12102 -6.29654 21654 ft 360 kts 216°
2026-04-21 18:23 37.10049 -6.31478 22382 ft 364 kts 216°
2026-04-21 18:24 37.07972 -6.33320 23103 ft 368 kts 216°
2026-04-21 18:24 37.05871 -6.35183 23789 ft 373 kts 216°
2026-04-21 18:24 37.03745 -6.37067 24459 ft 377 kts 216°
2026-04-21 18:24 37.01595 -6.38970 25086 ft 380 kts 216°
2026-04-21 18:25 36.99423 -6.40893 25707 ft 384 kts 216°
2026-04-21 18:25 36.97236 -6.42826 26338 ft 386 kts 216°
2026-04-21 18:25 36.95031 -6.44774 26916 ft 390 kts 216°
2026-04-21 18:25 36.92809 -6.46735 27456 ft 393 kts 216°
2026-04-21 18:26 36.90565 -6.48714 28015 ft 396 kts 216°
2026-04-21 18:26 36.88308 -6.50704 28535 ft 398 kts 216°
2026-04-21 18:26 36.86035 -6.52706 29020 ft 402 kts 216°
2026-04-21 18:26 36.83742 -6.54724 29499 ft 404 kts 216°
2026-04-21 18:27 36.81444 -6.56745 30046 ft 404 kts 215°
2026-04-21 18:27 36.79154 -6.58758 30709 ft 401 kts 215°
2026-04-21 18:27 36.76878 -6.60757 31366 ft 399 kts 216°
2026-04-21 18:27 36.74647 -6.62715 31934 ft 397 kts 216°
2026-04-21 18:28 36.72387 -6.64697 32446 ft 397 kts 216°
2026-04-21 18:28 36.70127 -6.66677 32975 ft 396 kts 216°
2026-04-21 18:28 36.67849 -6.68672 33571 ft 394 kts 216°
2026-04-21 18:28 36.65644 -6.70601 34095 ft 392 kts 216°
2026-04-21 18:29 36.63408 -6.72558 34536 ft 393 kts 216°
2026-04-21 18:29 36.61165 -6.74519 34862 ft 396 kts 216°
2026-04-21 18:29 36.58895 -6.76501 34863 ft 400 kts 216°
2026-04-21 18:30 36.54356 -6.80458 34875 ft 395 kts 216°
2026-04-21 18:30 36.49862 -6.84371 34884 ft 395 kts 216°
2026-04-21 18:31 36.45354 -6.88292 34883 ft 396 kts 216°
2026-04-21 18:31 36.40836 -6.92215 34882 ft 397 kts 216°
2026-04-21 18:32 36.36309 -6.96140 34878 ft 397 kts 216°
2026-04-21 18:32 36.31770 -7.00072 34878 ft 398 kts 216°
2026-04-21 18:33 36.27219 -7.04008 34872 ft 399 kts 216°
2026-04-21 18:33 36.22657 -7.07946 34869 ft 401 kts 216°
2026-04-21 18:34 36.18084 -7.11890 34868 ft 400 kts 216°
2026-04-21 18:34 36.13511 -7.15828 34869 ft 400 kts 216°
2026-04-21 18:35 36.09708 -7.19097 34871 ft 400 kts 216°
2026-04-21 18:35 36.04359 -7.23689 34870 ft 401 kts 216°
2026-04-21 18:36 35.99774 -7.27620 34871 ft 401 kts 216°
2026-04-21 18:36 35.95188 -7.31546 34871 ft 401 kts 216°
2026-04-21 18:37 35.90602 -7.35466 34867 ft 401 kts 216°
2026-04-21 18:37 35.86048 -7.39352 34877 ft 401 kts 216°
2026-04-21 18:38 35.81529 -7.43379 34872 ft 400 kts 220°
2026-04-21 18:38 35.77204 -7.47708 34869 ft 401 kts 221°
2026-04-21 18:39 35.72891 -7.52056 34872 ft 401 kts 220°
2026-04-21 18:39 35.68563 -7.56387 34874 ft 401 kts 220°
2026-04-21 18:40 35.64222 -7.60708 34882 ft 402 kts 220°
2026-04-21 18:40 35.60606 -7.64296 34882 ft 402 kts 220°
2026-04-21 18:41 35.55512 -7.69343 34878 ft 403 kts 220°
2026-04-21 18:41 35.51150 -7.73664 34868 ft 403 kts 220°
2026-04-21 18:42 35.46783 -7.77983 34875 ft 403 kts 220°
2026-04-21 18:42 35.42422 -7.82290 34878 ft 402 kts 220°
2026-04-21 18:43 35.38078 -7.86601 34878 ft 401 kts 220°
2026-04-21 18:43 35.33757 -7.90924 34879 ft 401 kts 220°
2026-04-21 18:44 35.29435 -7.95244 34880 ft 401 kts 220°
2026-04-21 18:44 35.25118 -7.99548 34878 ft 400 kts 220°
2026-04-21 18:45 35.20800 -8.03844 34858 ft 400 kts 221°
2026-04-21 18:45 35.16468 -8.08151 34874 ft 402 kts 221°
2026-04-21 18:46 35.12113 -8.12474 34879 ft 405 kts 221°
2026-04-21 18:46 35.07730 -8.16815 34870 ft 407 kts 221°
2026-04-21 18:47 35.03326 -8.21170 34881 ft 408 kts 221°
2026-04-21 18:47 34.98913 -8.25532 34880 ft 409 kts 221°
2026-04-21 18:48 34.94490 -8.29897 34880 ft 409 kts 221°
2026-04-21 18:48 34.90091 -8.34232 34878 ft 409 kts 221°
2026-04-21 18:49 34.85668 -8.38588 34877 ft 408 kts 221°
2026-04-21 18:49 34.82716 -8.41487 34877 ft 407 kts 221°
2026-04-21 18:50 34.76860 -8.47228 34889 ft 405 kts 221°
2026-04-21 18:50 34.73183 -8.50832 34889 ft 405 kts 221°
2026-04-21 18:51 34.68798 -8.55125 34897 ft 405 kts 221°
2026-04-21 18:51 34.64411 -8.59414 34900 ft 405 kts 221°
2026-04-21 18:52 34.60016 -8.63705 34901 ft 406 kts 221°
2026-04-21 18:52 34.55611 -8.67998 34899 ft 406 kts 221°
2026-04-21 18:53 34.51194 -8.72297 34898 ft 407 kts 221°
2026-04-21 18:53 34.46801 -8.76567 34897 ft 408 kts 221°
2026-04-21 18:54 34.42361 -8.80867 34899 ft 409 kts 221°
2026-04-21 18:54 34.37897 -8.85159 34899 ft 410 kts 221°
2026-04-21 18:55 34.33414 -8.89461 34902 ft 412 kts 221°
2026-04-21 18:55 34.28919 -8.93771 34896 ft 413 kts 221°
2026-04-21 18:56 34.24411 -8.98088 34899 ft 414 kts 221°
2026-04-21 18:56 34.19886 -9.02417 34907 ft 415 kts 221°
2026-04-21 18:57 34.15345 -9.06758 34905 ft 417 kts 221°
2026-04-21 18:57 34.10783 -9.11110 34908 ft 419 kts 221°
2026-04-21 18:58 34.06197 -9.15481 34907 ft 421 kts 221°
2026-04-21 18:58 34.01589 -9.19864 34913 ft 423 kts 221°
2026-04-21 18:59 33.96967 -9.24256 34921 ft 424 kts 221°
2026-04-21 18:59 33.92325 -9.28660 34917 ft 426 kts 221°
2026-04-21 19:00 33.87674 -9.33066 34916 ft 427 kts 221°
2026-04-21 19:00 33.82995 -9.37491 34917 ft 428 kts 221°
2026-04-21 19:01 33.78301 -9.41925 34916 ft 429 kts 221°
2026-04-21 19:01 33.73602 -9.46358 34917 ft 430 kts 221°
2026-04-21 19:02 33.68890 -9.50796 34915 ft 431 kts 221°
2026-04-21 19:02 33.64166 -9.55240 34917 ft 431 kts 221°
2026-04-21 19:03 33.59474 -9.59648 34917 ft 432 kts 221°
2026-04-21 19:03 33.54742 -9.64088 34917 ft 432 kts 221°
2026-04-21 19:04 33.50017 -9.68515 34927 ft 431 kts 221°
2026-04-21 19:04 33.45294 -9.72933 34928 ft 431 kts 221°
2026-04-21 19:05 33.40579 -9.77335 34931 ft 430 kts 221°
2026-04-21 19:05 33.35865 -9.81729 34920 ft 429 kts 221°
2026-04-21 19:06 33.31165 -9.86109 34932 ft 427 kts 221°
2026-04-21 19:06 33.26476 -9.90467 34927 ft 427 kts 221°
2026-04-21 19:07 33.21793 -9.94814 34926 ft 426 kts 221°
2026-04-21 19:07 33.17126 -9.99147 34923 ft 424 kts 221°
2026-04-21 19:08 33.12512 -10.03419 34915 ft 424 kts 221°
2026-04-21 19:08 33.07838 -10.07743 34930 ft 426 kts 221°
2026-04-21 19:09 33.03136 -10.12088 34934 ft 429 kts 221°
2026-04-21 19:09 32.98402 -10.16451 34931 ft 431 kts 221°
2026-04-21 19:10 32.93654 -10.20821 34927 ft 432 kts 221°
2026-04-21 19:10 32.88898 -10.25191 34922 ft 431 kts 221°
2026-04-21 19:11 32.84169 -10.29528 34931 ft 428 kts 221°
2026-04-21 19:11 32.79469 -10.33838 34935 ft 425 kts 221°
2026-04-21 19:12 32.74822 -10.38093 34935 ft 424 kts 221°
2026-04-21 19:12 32.70162 -10.42352 34938 ft 422 kts 221°
2026-04-21 19:13 32.65516 -10.46599 34933 ft 421 kts 221°
2026-04-21 19:13 32.60865 -10.50842 34935 ft 422 kts 221°
2026-04-21 19:14 32.56203 -10.55089 34938 ft 423 kts 220°
2026-04-21 19:14 32.51531 -10.59339 34934 ft 424 kts 220°
2026-04-21 19:15 32.46851 -10.63591 34938 ft 424 kts 220°
2026-04-21 19:15 32.42160 -10.67841 34936 ft 425 kts 220°
2026-04-21 19:16 32.37464 -10.72098 34933 ft 425 kts 220°
2026-04-21 19:16 32.32763 -10.76350 34931 ft 425 kts 220°
2026-04-21 19:17 32.25709 -10.82724 34932 ft 426 kts 220°
2026-04-21 19:17 32.20997 -10.86971 34938 ft 426 kts 220°
2026-04-21 19:18 32.16275 -10.91223 34932 ft 428 kts 220°
2026-04-21 19:18 32.11541 -10.95479 34936 ft 428 kts 221°
2026-04-21 19:19 32.06792 -10.99745 34934 ft 429 kts 220°
2026-04-21 19:19 32.02034 -11.04013 34937 ft 431 kts 220°
2026-04-21 19:20 31.97255 -11.08295 34943 ft 432 kts 220°
2026-04-21 19:20 31.92468 -11.12576 34932 ft 433 kts 220°
2026-04-21 19:21 31.87666 -11.16863 34932 ft 433 kts 220°
2026-04-21 19:21 31.82866 -11.21149 34945 ft 433 kts 220°
2026-04-21 19:22 31.78057 -11.25433 34944 ft 434 kts 220°
2026-04-21 19:22 31.73238 -11.29721 34946 ft 435 kts 220°
2026-04-21 19:23 31.68412 -11.34019 34947 ft 436 kts 220°
2026-04-21 19:23 31.63580 -11.38321 34942 ft 437 kts 220°
2026-04-21 19:24 31.58737 -11.42627 34942 ft 437 kts 220°
2026-04-21 19:24 31.53886 -11.46934 34942 ft 438 kts 220°
2026-04-21 19:25 31.49026 -11.51245 34936 ft 438 kts 220°
2026-04-21 19:25 31.44160 -11.55551 34935 ft 439 kts 220°
2026-04-21 19:26 31.39288 -11.59858 34932 ft 438 kts 220°
2026-04-21 19:26 31.34424 -11.64154 34936 ft 438 kts 220°
2026-04-21 19:27 31.29558 -11.68443 34932 ft 438 kts 220°
2026-04-21 19:27 31.24696 -11.72724 34933 ft 437 kts 220°
2026-04-21 19:28 31.19841 -11.76994 34937 ft 437 kts 220°
2026-04-21 19:28 31.14984 -11.81259 34932 ft 436 kts 220°
2026-04-21 19:29 31.10136 -11.85513 34938 ft 436 kts 220°
2026-04-21 19:29 31.05290 -11.89757 34932 ft 435 kts 220°
2026-04-21 19:30 31.00455 -11.93988 34935 ft 435 kts 220°
2026-04-21 19:30 30.95650 -11.98188 34934 ft 434 kts 220°
2026-04-21 19:31 30.90818 -12.02405 34930 ft 434 kts 220°
2026-04-21 19:31 30.85970 -12.06631 34929 ft 436 kts 220°
2026-04-21 19:32 30.81096 -12.10874 34931 ft 439 kts 220°
2026-04-21 19:32 30.76191 -12.15138 34929 ft 441 kts 220°
2026-04-21 19:33 30.71267 -12.19412 34925 ft 442 kts 220°
2026-04-21 19:33 30.66344 -12.23680 34924 ft 441 kts 220°
2026-04-21 19:34 30.61435 -12.27932 34929 ft 439 kts 220°
2026-04-21 19:34 30.56546 -12.32161 34922 ft 438 kts 220°
2026-04-21 19:35 30.50056 -12.37766 34926 ft 436 kts 219°
2026-04-21 19:36 30.45159 -12.41975 34926 ft 435 kts 219°
2026-04-21 19:36 30.40321 -12.46124 34927 ft 435 kts 219°
2026-04-21 19:37 30.35449 -12.50299 34924 ft 436 kts 219°
2026-04-21 19:37 30.30572 -12.54473 34926 ft 437 kts 219°
2026-04-21 19:38 30.25677 -12.58660 34923 ft 437 kts 219°
2026-04-21 19:38 30.20781 -12.62844 34925 ft 438 kts 219°
2026-04-21 19:39 30.15879 -12.67029 34924 ft 438 kts 219°
2026-04-21 19:39 30.10966 -12.71217 34925 ft 439 kts 219°
2026-04-21 19:40 30.05767 -12.74958 34932 ft 442 kts 211°
2026-04-21 19:40 30.00333 -12.78290 34930 ft 442 kts 211°
2026-04-21 19:41 29.94917 -12.81634 34931 ft 441 kts 212°
2026-04-21 19:41 29.89533 -12.85038 34921 ft 439 kts 212°
2026-04-21 19:41 29.86886 -12.86724 34761 ft 432 kts 212°
2026-04-21 19:42 29.84286 -12.88383 34494 ft 422 kts 212°
2026-04-21 19:42 29.81736 -12.90009 34115 ft 416 kts 212°
2026-04-21 19:42 29.79216 -12.91616 33751 ft 411 kts 212°
2026-04-21 19:42 29.76729 -12.93201 33384 ft 407 kts 212°
2026-04-21 19:43 29.74260 -12.94773 33032 ft 408 kts 212°
2026-04-21 19:43 29.71713 -12.96398 32663 ft 430 kts 212°
2026-04-21 19:43 29.69027 -12.98112 32261 ft 453 kts 212°
2026-04-21 19:43 29.66242 -12.99885 31851 ft 457 kts 211°
2026-04-21 19:44 29.63463 -13.01645 31434 ft 455 kts 211°
2026-04-21 19:44 29.60704 -13.03391 31023 ft 450 kts 211°
2026-04-21 19:44 29.57970 -13.05123 30613 ft 447 kts 211°
2026-04-21 19:44 29.55259 -13.06839 30220 ft 444 kts 211°
2026-04-21 19:45 29.52564 -13.08544 29826 ft 441 kts 211°
2026-04-21 19:45 29.49885 -13.10239 29423 ft 438 kts 211°
2026-04-21 19:45 29.47221 -13.11923 29010 ft 436 kts 211°
2026-04-21 19:45 29.44575 -13.13596 28595 ft 434 kts 211°
2026-04-21 19:46 29.41938 -13.15264 28180 ft 431 kts 211°
2026-04-21 19:46 29.39315 -13.16921 27767 ft 429 kts 211°
2026-04-21 19:46 29.36708 -13.18565 27351 ft 427 kts 211°
2026-04-21 19:46 29.34082 -13.20138 26941 ft 425 kts 208°
2026-04-21 19:47 29.31426 -13.21591 26546 ft 422 kts 207°
2026-04-21 19:47 29.28777 -13.23001 26133 ft 418 kts 207°
2026-04-21 19:47 29.26156 -13.24409 25962 ft 414 kts 207°
2026-04-21 19:47 29.23555 -13.25827 25940 ft 414 kts 208°
2026-04-21 19:48 29.20996 -13.27230 25935 ft 413 kts 208°
2026-04-21 19:48 29.18397 -13.28659 25519 ft 415 kts 208°
2026-04-21 19:48 29.15804 -13.30078 24966 ft 410 kts 208°
2026-04-21 19:48 29.13242 -13.31478 24340 ft 405 kts 208°
2026-04-21 19:49 29.10714 -13.32860 23730 ft 402 kts 208°
2026-04-21 19:49 29.08202 -13.34234 23098 ft 398 kts 208°
2026-04-21 19:49 29.05687 -13.35608 22463 ft 393 kts 208°
2026-04-21 19:49 29.03263 -13.36931 21844 ft 389 kts 208°
2026-04-21 19:50 29.01621 -13.37829 21430 ft 386 kts 208°
2026-04-21 19:50 28.98433 -13.39569 20609 ft 381 kts 207°
2026-04-21 19:50 28.96055 -13.40867 19980 ft 376 kts 207°
2026-04-21 19:50 28.93706 -13.42148 19355 ft 372 kts 207°
2026-04-21 19:51 28.91381 -13.43416 18731 ft 368 kts 207°
2026-04-21 19:51 28.89081 -13.44668 18108 ft 365 kts 207°
2026-04-21 19:51 28.86801 -13.45910 17481 ft 361 kts 207°
2026-04-21 19:51 28.84543 -13.47138 16861 ft 358 kts 207°
2026-04-21 19:52 28.82310 -13.48352 16237 ft 354 kts 207°
2026-04-21 19:52 28.80091 -13.49559 15611 ft 351 kts 207°
2026-04-21 19:52 28.77892 -13.50755 14988 ft 348 kts 207°
2026-04-21 19:52 28.75715 -13.51936 14367 ft 346 kts 207°
2026-04-21 19:53 28.73552 -13.53110 13740 ft 343 kts 207°
2026-04-21 19:53 28.71405 -13.54275 13115 ft 340 kts 207°
2026-04-21 19:53 28.69282 -13.55427 12492 ft 337 kts 207°
2026-04-21 19:53 28.67176 -13.56568 11866 ft 334 kts 207°
2026-04-21 19:54 28.65084 -13.57703 11244 ft 332 kts 207°
2026-04-21 19:54 28.63019 -13.58823 10887 ft 323 kts 207°
2026-04-21 19:54 28.61027 -13.59901 10624 ft 311 kts 207°
2026-04-21 19:54 28.59084 -13.60953 10377 ft 308 kts 207°
2026-04-21 19:55 28.57155 -13.61997 10124 ft 306 kts 207°
2026-04-21 19:55 28.55233 -13.63037 9870 ft 306 kts 207°
2026-04-21 19:55 28.53308 -13.64078 9559 ft 309 kts 207°
2026-04-21 19:55 28.51334 -13.65081 9153 ft 312 kts 205°
2026-04-21 19:56 28.49321 -13.66055 8717 ft 315 kts 204°
2026-04-21 19:56 28.47313 -13.67024 8272 ft 312 kts 204°
2026-04-21 19:56 28.45235 -13.67632 8005 ft 310 kts 183°
2026-04-21 19:56 28.43075 -13.67438 8014 ft 313 kts 173°
2026-04-21 19:57 28.40919 -13.67065 7967 ft 312 kts 173°
2026-04-21 19:57 28.38779 -13.66704 7972 ft 311 kts 173°
2026-04-21 19:57 28.36638 -13.66350 7972 ft 311 kts 172°
2026-04-21 19:57 28.34581 -13.65609 7959 ft 313 kts 153°
2026-04-21 19:58 28.32687 -13.64387 7976 ft 314 kts 151°
2026-04-21 19:58 28.30781 -13.63156 7968 ft 315 kts 152°
2026-04-21 19:58 28.28859 -13.61967 7951 ft 314 kts 156°
2026-04-21 19:58 28.26744 -13.61487 7808 ft 312 kts 185°
2026-04-21 19:59 28.24724 -13.62234 7567 ft 307 kts 213°
2026-04-21 19:59 28.23177 -13.63860 7334 ft 300 kts 233°
2026-04-21 19:59 28.22185 -13.65880 7071 ft 289 kts 252°
2026-04-21 19:59 28.21815 -13.68083 6831 ft 281 kts 264°
2026-04-21 20:00 28.21592 -13.70219 6580 ft 274 kts 264°
2026-04-21 20:00 28.21367 -13.72352 6328 ft 271 kts 264°
2026-04-21 20:00 28.21136 -13.74461 6075 ft 269 kts 264°
2026-04-21 20:00 28.20902 -13.76563 5827 ft 269 kts 264°
2026-04-21 20:01 28.20664 -13.78645 5571 ft 264 kts 264°
2026-04-21 20:01 28.20429 -13.80685 5314 ft 258 kts 264°
2026-04-21 20:01 28.20257 -13.82687 5051 ft 253 kts 274°
2026-04-21 20:01 28.20790 -13.84536 4801 ft 246 kts 302°
2026-04-21 20:02 28.21866 -13.86007 4572 ft 240 kts 316°
2026-04-21 20:02 28.23199 -13.87039 4288 ft 230 kts 341°
2026-04-21 20:02 28.24781 -13.87115 3864 ft 226 kts
2026-04-21 20:02 28.26305 -13.86993 3537 ft 214 kts
2026-04-21 20:03 28.27756 -13.86951 3247 ft 203 kts
2026-04-21 20:03 28.29132 -13.86910 2987 ft 193 kts
2026-04-21 20:03 28.30437 -13.86870 2736 ft 183 kts
2026-04-21 20:03 28.31679 -13.86828 2496 ft 174 kts
2026-04-21 20:04 28.32867 -13.86787 2270 ft 167 kts
2026-04-21 20:04 28.34011 -13.86749 2048 ft 162 kts
2026-04-21 20:04 28.35096 -13.86713 1845 ft 150 kts
2026-04-21 20:04 28.36119 -13.86680 1662 ft 147 kts
2026-04-21 20:05 28.37140 -13.86648 1458 ft 145 kts 360°
2026-04-21 20:05 28.38142 -13.86613 1266 ft 144 kts 360°
2026-04-21 20:05 28.39141 -13.86580 1084 ft 143 kts 360°
2026-04-21 20:05 28.40140 -13.86549 888 ft 145 kts 360°
2026-04-21 20:06 28.41145 -13.86512 693 ft 145 kts 360°
2026-04-21 20:06 28.42153 -13.86479 503 ft 145 kts 360°
2026-04-21 20:06 28.43159 -13.86448 298 ft 145 kts 359°
2026-04-21 20:06 28.44162 -13.86414 99 ft 143 kts
2026-04-21 20:07 28.45073 -13.86384 88 ft 126 kts
2026-04-21 20:07 28.46092 -13.86351 969 ft 162 kts
2026-04-21 20:07 28.47375 -13.86303 2070 ft 204 kts
2026-04-21 20:07 28.48888 -13.86239 3221 ft 231 kts
2026-04-21 20:08 28.50542 -13.85906 4305 ft 252 kts 22°
2026-04-21 20:08 28.52059 -13.84719 4790 ft 281 kts 40°
2026-04-21 20:08 28.53265 -13.82977 4789 ft 278 kts 59°
2026-04-21 20:08 28.54098 -13.81010 4794 ft 274 kts 63°
2026-04-21 20:09 28.54896 -13.79054 4812 ft 273 kts 67°
2026-04-21 20:09 28.55189 -13.76929 4811 ft 277 kts 94°
2026-04-21 20:09 28.54582 -13.74858 4828 ft 280 kts 122°
2026-04-21 20:09 28.53200 -13.73313 4827 ft 282 kts 149°
2026-04-21 20:10 28.51363 -13.72647 4900 ft 277 kts 176°
2026-04-21 20:10 28.49436 -13.72582 5007 ft 276 kts 181°
2026-04-21 20:10 28.47517 -13.72574 5011 ft 276 kts 180°
2026-04-21 20:10 28.45580 -13.72567 5011 ft 280 kts 182°
2026-04-21 20:11 28.43636 -13.72600 5022 ft 280 kts 182°
2026-04-21 20:11 28.41694 -13.72637 5025 ft 278 kts 182°
2026-04-21 20:11 28.39758 -13.72668 5020 ft 278 kts 182°
2026-04-21 20:11 28.37824 -13.72702 5024 ft 277 kts 182°
2026-04-21 20:12 28.35896 -13.72735 5021 ft 277 kts 182°
2026-04-21 20:12 28.33961 -13.72770 5000 ft 279 kts 182°
2026-04-21 20:12 28.32669 -13.72791 4879 ft 281 kts 182°
2026-04-21 20:12 28.30109 -13.72835 4621 ft 270 kts 182°
2026-04-21 20:13 28.28313 -13.73220 4406 ft 261 kts 207°
2026-04-21 20:13 28.26912 -13.74471 4031 ft 257 kts 235°
2026-04-21 20:13 28.26239 -13.76304 3667 ft 253 kts 264°
2026-04-21 20:13 28.26170 -13.78281 3328 ft 251 kts 272°
2026-04-21 20:14 28.26160 -13.80227 3150 ft 243 kts 272°
2026-04-21 20:14 28.26148 -13.82119 2977 ft 235 kts 272°
2026-04-21 20:14 28.26141 -13.83914 2793 ft 221 kts 275°
2026-04-21 20:14 28.26620 -13.85447 2601 ft 201 kts 314°
2026-04-21 20:15 28.27794 -13.86121 2553 ft 190 kts 347°
2026-04-21 20:15 28.29037 -13.86489 2521 ft 176 kts 345°
2026-04-21 20:15 28.30189 -13.86691 2515 ft 161 kts 353°
2026-04-21 20:15 28.31296 -13.86783 2471 ft 161 kts 356°
2026-04-21 20:16 28.32387 -13.86792 2351 ft 156 kts 359°
2026-04-21 20:16 28.33459 -13.86767 2159 ft 150 kts 360°
2026-04-21 20:16 28.34487 -13.86734 1963 ft 146 kts
2026-04-21 20:16 28.35495 -13.86700 1773 ft 145 kts
2026-04-21 20:17 28.36508 -13.86667 1583 ft 146 kts
2026-04-21 20:17 28.37525 -13.86633 1386 ft 146 kts 360°
2026-04-21 20:17 28.38537 -13.86596 1200 ft 146 kts 360°
2026-04-21 20:17 28.39545 -13.86567 995 ft 143 kts 360°
2026-04-21 20:18 28.40219 -13.86546 853 ft 143 kts 360°
2026-04-21 20:18 28.41540 -13.86501 615 ft 143 kts 360°
2026-04-21 20:18 28.42535 -13.86467 414 ft 143 kts 359°
2026-04-21 20:18 28.43520 -13.86433 212 ft 141 kts 358°
2026-04-21 20:19 28.44506 -13.86402 62 ft 138 kts
2026-04-21 20:19 28.45340 -13.86375 79 ft 98 kts
2026-04-21 20:19 28.45778 -13.86359 88 ft 50 kts
2026-04-21 20:19 28.46053 -13.86422 93 ft 28 kts 334°
2026-04-21 20:20 28.46143 -13.86490 96 ft 9 kts 290°
2026-04-21 20:20 28.46110 -13.86541 98 ft 9 kts 189°
2026-04-21 20:20 28.46029 -13.86545 97 ft 15 kts 181°
2026-04-21 20:20 28.45900 -13.86549 99 ft 22 kts 182°
2026-04-21 20:21 28.45721 -13.86555 96 ft 27 kts 181°
2026-04-21 20:21 28.45593 -13.86559 95 ft 26 kts 181°
2026-04-21 20:21 28.45463 -13.86564 95 ft 17 kts 182°
2026-04-21 20:21 28.45373 -13.86600 96 ft 13 kts 255°
2026-04-21 20:22 28.45370 -13.86703 98 ft 13 kts 259°
2026-04-21 20:22 28.45269 -13.86768 98 ft 5 kts 272°
2026-04-21 20:22 28.45270 -13.86813 98 ft 6 kts 271°
2026-04-21 20:23 28.45270 -13.86836 98 ft 1 kts 271°